Home   Weather   Schwedt/Oder   Past weeks

Flag for Germany Past Weather in Schwedt/Oder, Brandenburg, Germany — Yesterday and Last 2 Weeks

Now
63 °F

Passing clouds.


Feels Like: 63 °F
Forecast: 46 / 59 °F
Wind: 10 mph from West

Location: Szczecin Airport

Current Time: Sep 30, 2016 at 12:07:22 PM

Latest Report: Sep 30, 2016 at 11:30 AM


Visibility: N/A

Pressure: 29.89 "Hg

Humidity: 68%

Dew Point: 52 °F

Location of Schwedt/OderLocation

Past Weather in Schwedt/Oder — Graph

°F

Schwedt/Oder Temperature Yesterday

Maximum temperature yesterday: 75 °F (at 4:00 PM)
Minimum temperature yesterday: 61 °F (at 12:00 AM)
Average temperature yesterday: 67 °F

High & Low Weather Summary for the Past Weeks

 TemperatureHumidityPressure
High77 °F (Sep 16, 1:30 PM)100% (Sep 20, 1:00 AM)30.33 "Hg (Sep 20, 1:00 AM)
Low39 °F (Sep 22, 6:00 AM)31% (Sep 29, 4:30 PM)29.77 "Hg (Sep 29, 5:00 PM)
Average58 °F71%30.09 "Hg
* Reported Sep 15 11:00 AM — Sep 30 11:00 AM, Schwedt/Oder, Weather by CustomWeather, © 2016

Note: Actual official high and low records may vary slightly from our data, if they occured in-between our weather recording intervals... More about our weather records

Advertising

Schwedt/Oder Weather History for the Previous 24 Hours

Scroll right to see more
 ConditionsComfort  
Time TempWeatherWind HumidityBarometerVisibility
11:00 AM
Fri, Sep 30
61 °FPassing clouds.12 mph72%29.89 "HgN/A
10:30 AM59 °FPassing clouds.10 mph77%29.89 "HgN/A
10:00 AM59 °FPassing clouds.9 mph77%29.89 "HgN/A
9:30 AM59 °FPassing clouds.8 mph77%29.86 "HgN/A
9:00 AM57 °FPassing clouds.8 mph82%29.86 "HgN/A
8:30 AM57 °FSunny.6 mph82%29.86 "Hg10 mi
8:00 AM55 °FSunny.6 mph88%29.86 "Hg10 mi
7:30 AM55 °FPassing clouds.7 mph82%29.83 "HgN/A
7:00 AM57 °FPassing clouds.7 mph77%29.83 "HgN/A
6:30 AM57 °FPassing clouds.8 mph77%29.83 "HgN/A
6:00 AM57 °FPassing clouds.8 mph77%29.83 "HgN/A
5:30 AM57 °FPassing clouds.9 mph77%29.80 "HgN/A
5:00 AM57 °FClear.9 mph77%29.80 "Hg10 mi
4:30 AM57 °FPassing clouds.12 mph77%29.80 "HgN/A
4:00 AM57 °FPassing clouds.9 mph82%29.80 "HgN/A
3:30 AM57 °FPassing clouds.9 mph82%29.80 "HgN/A
3:00 AM57 °FPassing clouds.7 mph82%29.80 "HgN/A
2:30 AM57 °FOvercast.5 mph88%29.83 "HgN/A
2:00 AM57 °FMostly cloudy.8 mph88%29.80 "HgN/A
1:30 AM57 °FLight rain. Partly cloudy.14 mph88%29.80 "Hg4 mi
1:00 AM59 °FPartly cloudy.18 mph77%29.80 "HgN/A
12:30 AM59 °FPassing clouds.20 mph77%29.80 "HgN/A
12:00 AM61 °FPartly cloudy.22 mph77%29.80 "HgN/A
11:30 PM
Thu, Sep 29
68 °FPassing clouds.12 mph56%29.77 "HgN/A
11:00 PM68 °FPassing clouds.9 mph53%29.77 "HgN/A
10:30 PM68 °FPassing clouds.10 mph53%29.77 "HgN/A
10:00 PM70 °FPassing clouds.13 mph50%29.77 "HgN/A
9:30 PM68 °FPassing clouds.10 mph49%29.77 "HgN/A
9:00 PM70 °FClear.10 mph46%29.77 "Hg10 mi
8:30 PM70 °FPassing clouds.9 mph46%29.77 "HgN/A
8:00 PM68 °FPassing clouds.8 mph49%29.77 "HgN/A
7:30 PM70 °FPassing clouds.9 mph40%29.77 "HgN/A
7:00 PM72 °FPassing clouds.14 mph41%29.77 "HgN/A
6:30 PM73 °FPassing clouds.14 mph38%29.77 "HgN/A
6:00 PM73 °FPassing clouds.15 mph36%29.77 "HgN/A
5:30 PM75 °FPassing clouds.13 mph34%29.77 "HgN/A
5:00 PM75 °FPassing clouds.14 mph31%29.77 "HgN/A
4:30 PM75 °FSunny.15 mph31%29.80 "Hg10 mi
4:00 PM75 °FPassing clouds.13 mph34%29.80 "HgN/A
3:30 PM73 °FPassing clouds.15 mph36%29.80 "HgN/A
3:00 PM73 °FPassing clouds.15 mph38%29.83 "HgN/A
2:30 PM73 °FPassing clouds.16 mph38%29.83 "HgN/A
2:00 PM73 °FSunny.14 mph44%29.86 "Hg10 mi
1:30 PM72 °FPassing clouds.16 mph50%29.86 "HgN/A
1:00 PM72 °FPassing clouds.21 mph57%29.89 "HgN/A
12:30 PM70 °FPassing clouds.15 mph60%29.89 "HgN/A
12:00 PM68 °FScattered clouds.15 mph64%29.92 "HgN/A
Weather by CustomWeather, © 2016

See weather overviewHow to use our weather pages